Terug naar catalogus

COSMOS 1291

ActiefMilitairLEO
NORAD 12640·PAYLOAD·🇷🇺 Russia

Gelanceerd Aug 6, 1981 vanaf Plesetsk Cosmodrome

Loading…

Volgende Passages (komende 24 uur)

TLE

VersSource: Space-Track

Epoch: Sep 14, 2026, 13:06 UTC

1 12640U 81074E   26257.54611182  .00000002  00000-0  11621-3 0  9999
2 12640  74.0347 180.9421 0003846 127.2712 342.8252 12.50888419 59655

Volg COSMOS 1291 in realtime met AllMySat

Download on the App Store